Regional Weather Roundup
Issued by NWS Kansas City/Pleasant Hill, MO

Home | Current Version | Previous Version | Text Only | Print | Product List | Glossary On
Versions: 1 2 3 4 5 6 7 8 9 10 11 12 13 14 15 16 17 18 19 20 21 22 23 24 25 26 27 28 29 30 31 32 33 34 35 36 37 38 39 40 41 42 43 44 45 46 47 48 49 50
959
ASUS43 KEAX 221810
RWREAX

WEATHER ROUNDUP FOR EASTERN KANSAS AND NORTHWEST MISSOURI
NATIONAL WEATHER SERVICE KANSAS CITY/PLEASANT HILL MO
100 PM CDT SAT APR 22 2017

KSZ040-057-103>105-MOZ028-029-037-043-221900-
...KANSAS CITY METROPOLITAN AREA...

CITY           SKY/WX    TMP DP  RH WIND       PRES   REMARKS
K.C. INTL      PTSUNNY   63  36  36 NE22G28   30.15F
6HR MIN TEMP:  47; 6HR MAX TEMP:  63;

K.C. DOWNTOWN  SUNNY     64  31  28 NE20G30   30.13F
6HR MIN TEMP:  51; 6HR MAX TEMP:  64;

LEES SUMMIT    MOSUNNY   61  29  29 NE17G30   30.13F
6HR MIN TEMP:  49; 6HR MAX TEMP:  62;

OLATHE - IXD   SUNNY     61  34  36 N22G28    30.14F
6HR MIN TEMP:  47; 6HR MAX TEMP:  61;

OLATHE - OJC   SUNNY     59  31  34 NE20G26   30.13F
6HR MIN TEMP:  47; 6HR MAX TEMP:  61;

LAWRENCE       SUNNY     63  35  35 NE15G25   30.15F

$$

MOZ001>008-011>017-020>025-030>033-038>040-044>046-053-054-221900-
...NORTHERN AND CENTRAL MISSOURI...

CITY           SKY/WX    TMP DP  RH WIND       PRES   REMARKS
ST. JOSEPH     MOSUNNY   62  37  39 NE18G25   30.19S
6HR MIN TEMP:  45; 6HR MAX TEMP:  62;

MOSBY          CLEAR     61  28  29 NE17G23   30.15S
WHITEMAN AFB   PTSUNNY   56  37  48 NE13      30.10F
6HR MIN TEMP:  43; 6HR MAX TEMP:  56;

CLINTON        CLOUDY    54  39  58 NE17G24   30.10F
SEDALIA        NOT AVBL
WARSAW         NOT AVBL
CHILLICOTHE      N/A     63  27  25 NE13G22   30.17F
6HR MIN TEMP:  48; 6HR MAX TEMP:  64;

KIRKSVILLE     SUNNY     62  33  33 NE21G28   30.16F
6HR MIN TEMP:  45; 6HR MAX TEMP:  62;


$$

MOZ041-047>049-056>058-063>065-088>090-097-221900-
...EASTERN AND SOUTHERN MISSOURI...

CITY           SKY/WX    TMP DP  RH WIND       PRES   REMARKS
ST. LOUIS INTL CLOUDY    55  39  54 NE16G26   30.08F
6HR MIN TEMP:  47; 6HR MAX TEMP:  56; 6HR PCP:  0.05;

SPIRIT OF STL  CLOUDY    52  41  66 NE14G26   30.07F
COLUMBIA       CLOUDY    54  38  54 NE22G31   30.10S
JEFFERSON CITY CLOUDY    55  37  50 N12G23    30.09S
ROLLA          LGT RAIN  47  43  86 NE10      30.05S
OSAGE BEACH    CLOUDY    50  40  68 NE12G20   30.08F
SPRINGFIELD    LGT RAIN  47  44  90 NE10      30.04F FOG
BRANSON        CLOUDY    45  45 100 N7        30.03S FOG
JOPLIN         CLOUDY    47  43  86 N9        30.10S
WEST PLAINS    CLOUDY    49  44  83 NE13      30.00S

$$

IAZ060-094-KSZ022-034>040-054-083-096-NEZ052-066-093-221900-
...KANSAS...SOUTHEAST NEBRASKA AND IOWA...

CITY           SKY/WX    TMP DP  RH WIND       PRES   REMARKS
TOPEKA         MOSUNNY   63  40  42 NE17      30.17F
6HR MIN TEMP:  49; 6HR MAX TEMP:  63;

MANHATTAN      SUNNY     61  38  42 N15G21    30.21S
EMPORIA        CLOUDY    57  39  51 N17       30.17F
CHANUTE        CLOUDY    54  39  57 N15G29    30.13F
WICHITA        CLOUDY    52  41  66 N15G21    30.21S
OMAHA          CLOUDY    64  31  28 NE15      30.24F
LINCOLN        MOSUNNY   62  32  32 N6        30.27F
FALLS CITY     SUNNY     62  38  40 E18G24    30.20F
LAMONI         MOSUNNY   61  39  44 NE18G24   30.20F
DES MOINES     PTSUNNY   63  32  31 NE13G21   30.23F

$$





USA.gov is the U.S. government's official web portal to all federal, state and local government web resources and services.